Wind_Speed
6 7 7 9 10 10 9 8 6 4 4 4 4 5 6 7 8 9 9 10 11 11 12 12 12 12 11 11 11 11 10 11 11 10 10 10 10 10 11 11 12 12 12
7 8 8 9 10 10 9 8 7 6 5 4 5 5 6 8 8 9 9 9 9 10 10 10 10 10 10 10 10 10 10 10 10 10 10 10 10 11 11 12 12 13 13
8 8 8 9 10 9 8 7 6 5 5 5 6 6 7 7 7 7 7 7 8 8 8 8 8 9 9 9 9 9 9 9 9 10 10 10 11 11 11 12 13 13 14
7 8 8 9 9 8 7 6 6 5 5 6 6 6 6 6 5 5 5 6 6 6 7 7 7 8 8 8 9 9 9 9 9 9 10 10 10 11 12 12 13 13 14
7 6 7 8 7 7 6 6 5 5 5 5 5 5 5 5 4 4 4 4 5 5 6 6 6 7 7 7 8 8 9 9 9 9 10 10 10 11 12 13 14 14 13
6 6 7 7 7 6 6 6 5 5 5 5 4 4 4 3 3 2 3 4 4 5 6 7 7 7 7 7 8 9 9 9 9 9 10 11 11 12 12 13 14 13 13
4 5 6 6 6 6 6 6 6 5 5 4 4 3 3 2 2 2 2 3 4 5 6 7 8 8 8 8 8 9 10 10 10 10 10 11 11 12 12 13 13 12 13
4 5 6 6 6 7 7 6 6 5 5 5 4 3 3 2 1 1 2 3 4 5 7 8 9 9 9 9 9 9 11 11 11 11 11 11 12 12 13 13 13 13 14
4 6 7 7 8 8 7 7 7 7 7 6 5 4 3 2 2 1 2 3 4 6 8 10 11 11 11 10 10 10 11 12 13 12 12 12 13 13 13 14 14 14 15
5 7 8 9 9 9 9 9 8 8 7 7 6 5 4 3 3 3 3 3 5 7 9 10 11 12 12 12 11 11 12 14 14 14 14 14 14 14 14 15 15 15 15
7 8 9 10 11 11 10 10 9 9 8 7 6 5 4 4 4 4 4 5 6 7 9 11 12 13 13 12 12 12 13 14 15 15 16 16 16 16 16 16 16 16 16
8 9 10 10 11 11 11 11 10 9 8 7 6 6 5 5 4 4 5 6 7 8 9 11 13 13 13 13 14 14 14 14 16 16 17 18 18 18 17 17 17 17 18
9 10 11 11 11 11 11 11 10 9 8 7 7 6 6 6 6 6 6 7 8 8 10 11 12 13 13 13 14 14 15 15 16 16 17 18 19 19 19 19 19 19 19
9 10 10 10 10 10 10 10 10 10 9 8 8 7 7 7 8 8 8 8 8 9 10 11 12 13 14 14 13 14 14 14 15 16 17 18 19 20 21 21 22 22 23
10 10 10 10 10 10 10 10 10 10 9 9 9 9 9 10 10 10 11 11 11 11 12 12 13 13 14 15 15 14 14 14 14 15 15 17 19 20 21 22 23 24 25
10 10 9 10 11 11 11 11 11 11 10 10 11 11 11 12 12 13 14 14 14 14 14 14 15 15 16 16 17 16 16 16 16 15 15 16 17 19 21 22 23 25 26
11 11 11 11 12 12 12 12 12 12 12 12 12 13 13 14 15 16 17 17 17 17 17 17 17 17 18 18 18 19 19 18 18 18 17 18 19 20 20 22 23 25 26
13 12 13 13 14 15 15 15 14 14 14 14 14 15 16 17 18 19 19 20 21 21 21 21 21 20 20 21 21 21 21 21 21 21 20 21 21 21 22 23 24 25 26
15 15 15 17 18 19 19 18 18 17 17 17 17 18 19 21 22 23 23 24 25 25 25 25 25 24 24 23 23 24 24 24 24 24 24 24 25 25 26 26 27 28 29
18 18 17 18 20 23 22 21 21 22 22 22 22 23 23 24 25 26 28 29 29 29 30 30 28 26 25 25 26 26 27 26 26 27 27 27 27 28 28 30 31 32 33
20 21 21 19 19 22 23 23 25 27 28 27 28 27 27 27 29 30 31 32 32 32 32 32 30 28 27 27 28 29 29 29 29 30 30 30 31 32 33 34 35 36 37
22 22 23 22 21 23 24 26 29 31 32 32 33 31 32 32 31 32 32 32 33 34 34 32 31 31 31 31 31 31 31 31 32 33 33 35 35 36 37 39 40 41 42
23 22 23 25 25 25 27 29 32 33 34 35 36 34 34 34 35 35 35 35 34 34 35 34 33 32 33 32 32 33 33 33 34 35 36 38 39 41 42 43 44 46 47
26 25 26 27 27 28 31 33 33 33 35 36 35 35 35 35 35 35 36 34 33 34 35 35 35 34 34 35 36 36 37 36 36 37 39 41 43 44 45 47 48 50 51
29 28 28 29 30 31 34 34 34 36 37 37 37 37 36 35 35 35 36 35 35 35 35 36 36 36 36 37 37 37 38 39 40 41 42 44 46 47 49 50 52 54 55
32 31 31 33 33 34 34 35 37 38 39 38 38 38 37 37 37 38 37 37 37 37 38 38 38 39 39 40 40 40 41 42 42 44 46 48 49 51 52 54 55 57 59
Wind_Direction
266 265 263 259 259 262 264 263 263 266 268 276 291 302 308 311 314 317 319 321 322 323 323 322 323 323 323 323 323 322 321 320 319 315 310 304 298 292 287 281 276 272 270
268 264 261 257 255 256 260 260 260 263 267 273 283 290 293 296 301 307 312 316 318 320 322 322 322 323 323 324 323 321 320 318 315 311 308 304 299 293 287 281 277 275 273
270 263 259 254 251 250 252 253 256 262 267 272 277 281 282 285 291 299 307 314 318 320 322 322 323 323 323 323 321 319 317 315 311 307 304 300 297 292 286 281 278 278 277
276 263 254 248 243 242 241 240 244 254 265 273 275 276 276 277 282 294 304 311 315 317 319 319 319 319 320 320 317 315 313 310 307 305 301 298 295 292 288 283 282 282 280
277 255 243 235 229 227 227 226 230 241 254 263 266 268 269 273 280 293 304 310 312 313 314 315 316 316 316 316 314 312 309 306 302 301 298 295 293 292 290 287 287 283 279
270 241 225 216 211 210 211 211 216 227 236 243 251 257 261 267 277 295 307 313 315 316 317 316 316 316 317 318 316 312 307 303 299 296 293 291 289 290 288 288 289 282 279
248 217 203 198 194 194 196 200 206 210 214 219 226 234 241 247 260 287 307 313 315 316 316 316 317 320 322 322 318 313 308 304 300 296 292 291 288 286 286 284 286 282 281
224 200 189 181 177 177 179 183 184 183 185 188 195 200 205 210 225 275 303 307 310 312 313 312 314 315 316 318 315 309 305 303 300 297 294 291 287 283 282 281 281 280 278
198 184 172 161 157 158 160 163 165 168 172 176 180 183 187 200 219 254 294 306 309 311 311 310 310 312 313 313 310 305 302 301 299 296 293 289 285 282 279 278 276 277 277
172 165 158 152 150 152 153 156 160 164 169 174 179 185 195 208 226 249 276 293 304 309 310 310 311 312 313 312 308 302 299 298 296 293 290 286 283 280 278 276 274 274 275
168 161 155 150 149 150 153 158 163 167 173 178 183 191 205 218 232 253 271 284 296 303 308 311 311 311 311 310 307 304 300 299 294 291 288 283 281 279 278 276 275 275 275
170 162 155 152 153 156 159 165 170 175 181 187 193 202 213 220 234 254 266 277 291 300 307 312 313 313 312 309 305 302 302 302 296 290 286 283 281 278 277 276 276 275 275
173 166 161 162 166 169 172 175 180 185 191 195 203 211 216 224 238 252 261 274 286 295 304 311 315 317 316 314 310 304 300 298 296 292 289 286 282 278 277 276 275 275 275
183 181 176 177 180 185 188 190 191 194 197 201 209 217 224 232 240 250 257 271 283 292 300 307 313 316 316 314 313 311 307 302 299 294 291 288 284 280 279 278 277 276 275
198 194 194 197 201 206 206 206 207 208 209 214 220 226 232 238 244 252 259 268 277 286 293 299 306 311 312 311 311 310 309 307 304 299 295 293 289 286 284 281 279 278 276
208 209 211 216 217 220 222 223 224 224 223 225 229 234 241 245 248 255 262 269 274 281 284 289 297 302 304 305 306 308 308 308 307 303 300 300 296 292 289 287 284 282 279
218 221 228 228 228 232 234 234 236 236 236 237 241 245 250 253 256 260 265 269 274 278 281 285 291 295 297 299 301 302 302 303 302 301 300 299 299 296 293 290 287 284 281
222 230 235 237 238 240 242 243 245 246 247 249 252 255 258 262 264 266 268 271 274 276 279 281 284 287 292 294 295 297 297 297 297 296 297 296 297 296 292 289 288 287 286
220 227 236 238 245 243 244 247 252 254 254 254 257 260 263 267 269 271 272 272 275 277 277 278 280 283 287 289 290 291 291 291 292 292 291 291 293 293 291 289 288 288 288
224 228 236 242 244 243 245 251 258 260 260 259 260 263 265 268 270 274 274 273 276 279 278 277 278 282 286 287 286 287 288 287 289 288 288 288 290 290 289 288 288 287 288
237 238 239 242 243 244 248 254 259 261 262 261 262 266 269 271 273 274 274 275 277 278 277 279 281 281 284 287 286 286 286 286 285 285 285 285 286 286 286 287 287 286 286
235 237 241 244 247 248 253 260 264 263 265 265 264 266 269 272 275 276 276 278 279 279 279 279 282 283 282 284 284 285 285 285 284 284 285 285 285 286 286 286 286 286 285
241 243 246 249 250 255 260 265 267 268 269 269 269 271 274 274 277 280 280 280 280 281 281 282 282 285 284 284 285 285 286 284 284 285 285 286 287 287 287 287 287 286 286
248 252 254 255 254 258 261 264 266 270 272 275 277 277 277 279 283 285 286 286 286 286 287 285 287 286 284 284 284 285 285 284 285 285 285 286 287 287 286 286 286 287 287
251 254 258 261 260 262 263 266 269 275 277 280 281 285 285 290 291 292 292 291 291 292 292 289 288 288 287 286 285 285 285 285 286 287 287 287 288 287 287 287 287 287 287
254 257 261 264 266 267 268 269 274 277 279 282 288 290 292 293 295 293 292 293 291 291 292 292 288 288 289 289 285 285 285 286 288 288 288 288 289 289 289 288 288 288 288
Height
5892 5893 5893 5894 5895 5896 5896 5897 5899 5900 5902 5903 5903 5904 5904 5904 5905 5905 5905 5905 5905 5905 5905 5905 5905 5905 5905 5905 5905 5904 5904 5904 5904 5904 5904 5904 5904 5904 5904 5904 5904 5904 5904
5891 5891 5892 5893 5894 5894 5895 5896 5897 5899 5900 5901 5902 5903 5903 5903 5903 5903 5904 5904 5904 5903 5903 5903 5903 5903 5903 5903 5903 5903 5903 5903 5902 5902 5902 5902 5902 5902 5902 5902 5902 5902 5902
5889 5889 5890 5891 5892 5893 5894 5894 5896 5897 5898 5899 5900 5901 5901 5902 5902 5902 5902 5902 5902 5902 5902 5902 5902 5902 5901 5901 5901 5901 5901 5901 5900 5900 5900 5900 5900 5900 5900 5900 5900 5900 5900
5887 5888 5888 5889 5890 5891 5892 5893 5894 5895 5896 5897 5898 5899 5899 5900 5900 5901 5901 5901 5901 5900 5900 5900 5900 5900 5900 5900 5900 5900 5899 5899 5898 5898 5898 5898 5898 5897 5897 5897 5897 5897 5897
5885 5886 5887 5888 5889 5890 5891 5892 5893 5894 5895 5895 5896 5897 5898 5898 5899 5899 5899 5899 5899 5899 5898 5898 5898 5898 5898 5898 5898 5897 5897 5897 5896 5896 5896 5895 5895 5895 5895 5894 5894 5894 5894
5884 5884 5885 5886 5887 5888 5890 5891 5892 5892 5893 5894 5895 5895 5896 5896 5897 5897 5897 5897 5897 5897 5896 5896 5896 5896 5896 5896 5896 5895 5894 5894 5894 5893 5893 5892 5892 5892 5892 5891 5891 5891 5891
5883 5883 5884 5885 5886 5887 5888 5889 5890 5891 5892 5893 5894 5894 5895 5895 5895 5895 5895 5895 5895 5895 5895 5895 5895 5895 5895 5895 5894 5893 5892 5891 5891 5890 5890 5889 5889 5889 5888 5888 5888 5888 5888
5882 5883 5883 5884 5885 5886 5887 5888 5889 5890 5891 5892 5893 5893 5894 5894 5894 5894 5894 5894 5894 5894 5894 5893 5893 5893 5893 5893 5892 5891 5890 5888 5888 5887 5887 5886 5886 5886 5885 5885 5885 5885 5885
5882 5882 5882 5883 5884 5885 5886 5887 5888 5889 5890 5891 5892 5892 5893 5893 5894 5894 5894 5894 5894 5893 5893 5892 5892 5891 5891 5891 5890 5889 5888 5886 5885 5884 5884 5883 5883 5883 5882 5882 5882 5882 5882
5881 5882 5882 5883 5884 5885 5886 5887 5888 5889 5890 5891 5891 5892 5892 5893 5893 5893 5893 5893 5893 5892 5892 5891 5890 5890 5889 5889 5888 5887 5885 5884 5882 5881 5881 5880 5880 5879 5879 5879 5879 5879 5879
5881 5881 5882 5882 5883 5885 5886 5887 5888 5889 5890 5890 5891 5891 5892 5892 5892 5893 5893 5893 5892 5891 5891 5890 5888 5887 5887 5886 5885 5885 5883 5881 5880 5878 5878 5877 5877 5876 5876 5876 5876 5876 5876
5881 5882 5882 5883 5884 5885 5886 5887 5888 5889 5889 5890 5890 5891 5891 5892 5892 5892 5892 5891 5891 5890 5889 5888 5886 5885 5884 5883 5882 5882 5880 5879 5877 5875 5874 5874 5873 5873 5873 5873 5873 5873 5873
5881 5882 5882 5883 5884 5885 5886 5886 5887 5888 5889 5889 5890 5890 5890 5891 5891 5891 5890 5890 5889 5889 5887 5886 5885 5883 5881 5880 5879 5878 5877 5876 5874 5873 5871 5870 5870 5869 5869 5869 5869 5869 5869
5881 5882 5882 5883 5884 5885 5886 5886 5887 5887 5888 5888 5889 5889 5889 5889 5889 5889 5888 5888 5887 5886 5885 5884 5883 5881 5880 5878 5877 5875 5874 5872 5871 5869 5868 5867 5866 5866 5866 5866 5866 5865 5865
5881 5881 5882 5883 5884 5885 5885 5886 5886 5886 5887 5887 5887 5887 5887 5888 5887 5887 5886 5886 5885 5884 5883 5882 5880 5879 5877 5876 5874 5873 5871 5869 5868 5866 5865 5864 5863 5862 5862 5862 5861 5861 5861
5880 5881 5882 5883 5883 5884 5884 5885 5885 5885 5885 5886 5885 5885 5885 5885 5885 5884 5883 5883 5882 5881 5880 5879 5878 5876 5875 5873 5871 5870 5868 5866 5865 5863 5862 5860 5859 5858 5858 5857 5856 5856 5855
5878 5879 5880 5881 5882 5883 5883 5883 5884 5884 5883 5883 5883 5883 5882 5882 5881 5881 5880 5879 5878 5877 5876 5875 5874 5873 5871 5870 5868 5866 5865 5863 5862 5860 5859 5857 5856 5854 5853 5852 5851 5851 5850
5875 5877 5878 5879 5880 5880 5881 5881 5881 5881 5881 5880 5880 5880 5879 5878 5877 5877 5876 5875 5873 5872 5871 5870 5869 5868 5867 5865 5864 5862 5861 5859 5857 5856 5854 5853 5852 5850 5849 5848 5847 5845 5844
5872 5873 5875 5876 5876 5877 5877 5877 5878 5877 5877 5876 5876 5875 5874 5873 5872 5871 5870 5869 5867 5866 5865 5864 5863 5862 5861 5860 5859 5858 5856 5855 5853 5851 5849 5848 5847 5845 5844 5842 5841 5839 5838
5868 5869 5870 5871 5872 5872 5873 5873 5874 5873 5872 5871 5870 5869 5868 5867 5866 5864 5863 5862 5860 5859 5858 5857 5857 5856 5855 5854 5853 5852 5850 5849 5848 5846 5844 5842 5841 5839 5838 5836 5834 5833 5831
5863 5865 5866 5866 5867 5867 5868 5869 5868 5867 5866 5865 5863 5862 5861 5859 5858 5857 5855 5854 5853 5852 5851 5850 5850 5849 5848 5847 5846 5845 5843 5842 5841 5839 5838 5836 5834 5832 5830 5828 5826 5825 5823
5858 5860 5861 5861 5861 5862 5863 5862 5861 5859 5858 5857 5855 5854 5852 5851 5850 5848 5847 5846 5845 5844 5843 5842 5842 5841 5840 5839 5838 5837 5835 5835 5833 5831 5829 5828 5826 5823 5821 5819 5817 5815 5813
5853 5854 5855 5855 5856 5856 5856 5855 5853 5852 5850 5849 5848 5846 5844 5843 5842 5840 5839 5838 5837 5836 5835 5834 5833 5832 5831 5831 5830 5828 5827 5825 5824 5822 5820 5818 5816 5814 5811 5809 5807 5804 5802
5848 5848 5849 5849 5849 5850 5849 5847 5846 5844 5842 5841 5838 5836 5836 5835 5834 5833 5832 5830 5828 5828 5827 5826 5825 5824 5823 5822 5820 5819 5817 5816 5814 5812 5810 5808 5805 5803 5800 5798 5795 5792 5789
5842 5842 5842 5842 5842 5842 5841 5840 5839 5837 5834 5832 5830 5828 5827 5827 5827 5825 5824 5823 5822 5820 5819 5818 5816 5815 5813 5812 5810 5809 5807 5805 5803 5801 5799 5797 5794 5791 5788 5785 5782 5779 5776
5835 5835 5835 5835 5835 5834 5833 5832 5832 5829 5826 5823 5821 5820 5819 5819 5819 5818 5817 5816 5814 5813 5811 5809 5807 5805 5803 5802 5800 5798 5797 5795 5793 5790 5788 5785 5782 5778 5775 5772 5769 5765 5761